Location: Home
(42.5358°N, 72.7383°W)
Time: 06:53:58
(UTC-05:00)

Explorer 11/Cluster Stage 4 - Pass Details

Date: 02 December 2021
Orbit: 467 x 1255 km, 28.8° (Epoch: 25 January)

Event Time Altitude Azimuth Distance (km) Brightness Sun altitude
Rises 07:25:33 0° 258° (WSW) 4,149 9.9 2.8°
Reaches altitude 10° 07:29:47 10° 238° (WSW) 3,220 9.5 3.4°
Maximum altitude 07:34:17 16° 205° (SSW) 2,782 9.6 4.1°
Drops below altitude 10° 07:38:45 10° 171° (S) 3,161 10.5 4.8°
Sets 07:42:51 0° 151° (SSE) 4,034 11.6 5.4°
